Location: Leo
(52.0556°N, 112.3605°W)
Time: 10:09:43
(UTC+00:00)

FO-29 - Pass Details

Date: 04 December 2023
Orbit: 799 x 1322 km, 98.6° (Epoch: 01 March)

Event Time Altitude Azimuth Distance (km) Brightness Sun altitude
Rises 13:36:29 0° 11° (NNE) 4,046 12.7 -14.9°
Reaches altitude 10° 13:40:25 10° 350° (N) 3,174 11.9 -14.3°
Maximum altitude 13:44:01 15° 320° (NW) 2,901 11.5 -13.8°
Enters shadow 13:44:52 14° 313° (NW) 2,934 11.4 -13.6°
